GW1618 Weather Reports


time (UTC)temp
C
wind
direction
speed
KPH
gust
KPH
rain 1hr
cm
rain 24hr
cm
rain mn
cm
humidity
%
barometer
mb
20260508013829 17 359 6.4 9.7 0.00 0.00 0.00 56 1016.0
20260508013329 17 344 8.0 12.9 0.00 0.00 0.00 56 1016.0
20260508012828 17 359 9.7 12.9 0.00 0.00 0.00 55 1016.0
20260508012330 17 9 8.0 11.3 0.00 0.00 0.00 48 1016.0
20260508011823 17 26 6.4 9.7 0.00 0.00 0.00 49 1016.4
20260508011317 17 359 4.8 8.0 0.00 0.00 0.00 47 1016.4
20260508010809 17 21 4.8 8.0 0.00 0.00 0.00 50 1016.4
20260508004746 17 9 6.4 9.7 0.00 0.00 0.00 53 1016.5
20260508004235 17 4 6.4 9.7 0.00 0.00 0.00 52 1016.5
20260508003733 17 351 4.8 8.0 0.00 0.00 0.00 49 1016.5
20260508003516 17 14 8.0 11.3 0.00 0.00 0.00 53 1016.6
20260508002735 16 9 9.7 11.3 0.00 0.00 0.00 52 1016.6
20260508002233 16 21 9.7 11.3 0.00 0.00 0.00 53 1016.6
20260508001730 16 20 9.7 11.3 0.00 0.00 0.00 53 1016.7
20260508001517 16 15 9.7 11.3 0.00 0.00 0.00 51 1016.7
20260508000729 16 9 9.7 11.3 0.00 0.00 0.00 54 1016.7
20260508000229 16 9 9.7 14.5 0.00 0.00 0.00 55 1016.9
20260507235730 16 9 11.3 14.5 0.00 0.00 0.00 55 1016.9
20260507235230 16 9 11.3 14.5 0.00 0.00 0.00 54 1016.9
20260507234730 16 15 11.3 14.5 0.00 0.00 0.00 53 1017.1
20260507234230 16 9 11.3 14.5 0.00 0.00 0.00 54 1017.1
20260507233730 16 15 12.9 17.7 0.00 0.00 0.00 58 1017.1
20260507233517 16 15 14.5 17.7 0.00 0.00 0.00 57 1017.2
20260507232732 16 354 16.1 19.3 0.00 0.00 0.00 59 1017.2
20260507232234 16 9 12.9 19.3 0.00 0.00 0.00 56 1017.2
20260507232014 16 4 12.9 17.7 0.00 0.00 0.00 53 1017.5
20260507231230 16 359 14.5 17.7 0.00 0.00 0.00 55 1017.5
20260507230730 16 9 12.9 17.7 0.00 0.00 0.00 55 1017.5
20260507230230 16 337 12.9 17.7 0.00 0.00 0.00 60 1017.6
20260507225729 15 4 14.5 17.7 0.00 0.00 0.00 60 1017.6
20260507225517 15 4 14.5 17.7 0.00 0.00 0.00 56 1017.6
20260507224731 15 9 14.5 19.3 0.00 0.00 0.00 58 1017.6
20260507224230 15 14 14.5 19.3 0.00 0.00 0.00 57 1017.6
20260507223729 15 13 14.5 19.3 0.00 0.00 0.00 56 1017.6
20260507223230 15 13 16.1 19.3 0.00 0.00 0.00 55 1017.9
20260507223013 15 28 16.1 19.3 0.00 0.00 0.00 58 1017.9
20260507222231 15 9 16.1 19.3 0.00 0.00 0.00 59 1017.9
20260507221730 15 21 14.5 20.9 0.00 0.00 0.00 58 1018.1
20260507221525 15 9 14.5 20.9 0.00 0.00 0.00 59 1018.1
20260507221027 15 9 14.5 19.3 0.00 0.00 0.00 59 1018.1
20260507220536 15 9 14.5 17.7 0.00 0.00 0.00 56 1018.2
20260507215729 15 9 14.5 19.3 0.00 0.00 0.00 57 1018.2
20260507215523 15 9 16.1 19.3 0.00 0.00 0.00 57 1018.2
20260507214728 15 15 17.7 20.9 0.00 0.00 0.00 58 1018.2
20260507214230 15 14 19.3 22.5 0.00 0.00 0.00 60 1018.2
20260507213732 14 4 19.3 22.5 0.00 0.00 0.00 60 1018.2
20260507213228 15 4 17.7 22.5 0.00 0.00 0.00 59 1018.5
20260507212731 15 13 16.1 22.5 0.00 0.00 0.00 61 1018.5
20260507212232 15 4 16.1 24.1 0.00 0.00 0.00 59 1018.5
20260507211733 14 344 17.7 24.1 0.00 0.00 0.00 61 1018.6
20260507211229 14 15 19.3 24.1 0.00 0.00 0.00 61 1018.6
20260507210732 14 9 19.3 22.5 0.00 0.00 0.00 61 1018.6
20260507210230 14 16 17.7 22.5 0.00 0.00 0.00 62 1018.7
20260507205730 14 4 16.1 19.3 0.00 0.00 0.00 62 1018.7
20260507205231 14 4 14.5 19.3 0.00 0.00 0.00 62 1018.7
20260507204729 14 9 12.9 19.3 0.00 0.00 0.00 61 1018.9
20260507204228 14 19 14.5 19.3 0.00 0.00 0.00 60 1018.9
20260507203731 14 9 14.5 19.3 0.00 0.00 0.00 60 1018.9
20260507203230 14 4 14.5 20.9 0.00 0.00 0.00 61 1019.0
20260507203021 14 9 14.5 20.9 0.00 0.00 0.00 60 1019.0
20260507202230 15 351 12.9 20.9 0.00 0.00 0.00 60 1019.0
20260507201728 15 23 9.7 20.9 0.00 0.00 0.00 58 1019.1
20260507201229 16 359 4.8 20.9 0.00 0.00 0.00 54 1019.1
20260507200733 16 125 4.8 12.9 0.00 0.00 0.00 53 1019.1
20260507200230 15 201 4.8 12.9 0.00 0.00 0.00 53 1019.2
20260507195731 15 197 4.8 9.7 0.00 0.00 0.00 54 1019.2
20260507195229 15 200 4.8 11.3 0.00 0.00 0.00 53 1019.2
20260507194733 15 217 3.2 11.3 0.00 0.00 0.00 52 1019.4
20260507194229 15 148 3.2 6.4 0.00 0.00 0.00 53 1019.4
20260507193730 15 179 4.8 11.3 0.00 0.00 0.00 55 1019.4
20260507193208 15 204 4.8 11.3 0.00 0.00 0.00 55 1019.5
20260507192710 15 196 3.2 9.7 0.00 0.00 0.00 55 1019.5
20260507192210 15 212 3.2 4.8 0.00 0.00 0.00 56 1019.5
20260507191711 14 147 1.6 4.8 0.00 0.00 0.00 59 1019.6
20260507191209 13 353 4.8 11.3 0.00 0.00 0.00 60 1019.6
20260507190950 13 277 6.4 11.3 0.00 0.00 0.00 63 1019.6
20260507190209 13 17 6.4 9.7 0.00 0.00 0.00 64 1019.6
20260507185731 13 343 4.8 11.3 0.00 0.00 0.00 64 1019.6
20260507184705 13 354 4.8 11.3 0.00 0.00 0.00 63 1019.7
20260507184202 13 329 3.2 8.0 0.00 0.00 0.00 59 1019.7
20260507183702 13 359 3.2 9.7 0.00 0.00 0.00 60 1019.7
20260507183228 13 213 3.2 9.7 0.00 0.00 0.00 60 1019.7
20260507182208 13 264 4.8 9.7 0.00 0.00 0.00 61 1019.7
20260507181712 13 235 4.8 9.7 0.00 0.00 0.00 60 1019.8
20260507181157 13 234 3.2 8.0 0.00 0.00 0.00 61 1019.8
20260507180646 13 265 1.6 6.4 0.00 0.00 0.00 62 1019.8
20260507180134 13 211 1.6 6.4 0.00 0.00 0.00 63 1020.1
20260507175912 12 213 4.8 11.3 0.00 0.00 0.00 64 1020.1
20260507175131 12 202 4.8 11.3 0.00 0.00 0.00 64 1020.1
20260507174629 12 241 4.8 11.3 0.00 0.00 0.00 64 1020.1
20260507174417 12 247 6.4 11.3 0.00 0.00 0.00 64 1020.1
20260507173631 12 301 6.4 11.3 0.00 0.00 0.00 65 1020.1
20260507173130 12 277 6.4 11.3 0.00 0.00 0.00 64 1020.1
20260507172629 12 269 6.4 14.5 0.00 0.00 0.00 64 1020.1
20260507172419 13 265 4.8 14.5 0.00 0.00 0.00 64 1020.1
20260507171920 13 235 3.2 8.0 0.00 0.00 0.00 62 1020.1
20260507171409 12 155 3.2 9.7 0.00 0.00 0.00 64 1020.1
20260507170610 12 190 3.2 9.7 0.00 0.00 0.00 66 1020.1
20260507170109 11 160 3.2 9.7 0.00 0.00 0.00 68 1020.2
20260507165846 11 165 3.2 6.4 0.00 0.00 0.00 68 1020.2
20260507165129 11 204 3.2 6.4 0.00 0.00 0.00 68 1020.2
20260507164111 11 246 3.2 6.4 0.00 0.00 0.00 68 1020.2
20260507163608 11 262 1.6 6.4 0.00 0.00 0.00 68 1020.2
20260507163108 11 281 1.6 6.4 0.00 0.00 0.00 69 1020.2
20260507162609 11 179 3.2 6.4 0.00 0.00 0.00 69 1020.2
20260507162107 11 228 1.6 6.4 0.00 0.00 0.00 69 1020.2
20260507161843 11 209 1.6 6.4 0.00 0.00 0.00 69 1020.3
20260507161346 11 9 1.6 4.8 0.00 0.00 0.00 69 1020.3
20260507160846 11 119 3.2 6.4 0.00 0.00 0.00 70 1020.3
20260507160105 11 240 1.6 6.4 0.00 0.00 0.00 70 1020.4
20260507155538 11 140 1.6 6.4 0.00 0.00 0.00 70 1020.4
20260507155033 11 169 3.2 6.4 0.00 0.00 0.00 70 1020.4
20260507154537 11 234 1.6 4.8 0.00 0.00 0.00 70 1020.4
20260507154309 11 76 1.6 4.8 0.00 0.00 0.00 71 1020.4
20260507153527 11 128 1.6 4.8 0.00 0.00 0.00 72 1020.6
20260507153021 11 281 1.6 3.2 0.00 0.00 0.00 71 1020.6
20260507152516 11 240 1.6 3.2 0.00 0.00 0.00 71 1020.6
20260507152010 11 217 1.6 3.2 0.00 0.00 0.00 72 1020.6
20260507151509 11 232 1.6 3.2 0.00 0.00 0.00 72 1020.6
20260507151011 10 116 1.6 3.2 0.00 0.00 0.00 72 1020.6
20260507150505 10 113 1.6 4.8 0.00 0.00 0.00 73 1020.5
20260507150237 10 303 1.6 4.8 0.00 0.00 0.00 73 1020.5
20260507145501 10 281 3.2 6.4 0.00 0.00 0.00 72 1020.5
20260507145243 10 296 4.8 6.4 0.00 0.00 0.00 72 1020.4
20260507144804 10 296 3.2 6.4 0.00 0.00 0.00 72 1020.4
20260507143450 10 13 1.6 4.8 0.00 0.00 0.00 73 1020.4
20260507143229 10 199 1.6 4.8 0.00 0.00 0.00 73 1020.4
20260507142439 10 231 3.2 4.8 0.00 0.00 0.00 74 1020.4
20260507141935 10 292 3.2 6.4 0.00 0.00 0.00 74 1020.3
20260507141434 10 304 3.2 8.0 0.00 0.00 0.00 74 1020.3
20260507140932 10 284 4.8 8.0 0.00 0.00 0.00 74 1020.3
20260507140431 10 333 4.8 9.7 0.00 0.00 0.00 73 1020.2
20260507135929 10 294 4.8 9.7 0.00 0.00 0.00 73 1020.2
20260507135431 10 317 3.2 8.0 0.00 0.00 0.00 73 1020.2
20260507134929 10 317 3.2 8.0 0.00 0.00 0.00 74 1020.2
20260507134433 10 339 3.2 4.8 0.00 0.00 0.00 73 1020.2
20260507134212 10 337 3.2 4.8 0.00 0.00 0.00 74 1020.2
20260507133706 10 359 3.2 4.8 0.00 0.00 0.00 74 1020.1
20260507132931 10 36 3.2 4.8 0.00 0.00 0.00 74 1020.1
20260507132434 10 325 3.2 6.4 0.00 0.00 0.00 73 1020.1
20260507131930 10 335 4.8 6.4 0.00 0.00 0.00 73 1020.2
20260507131421 10 336 4.8 8.0 0.00 0.00 0.00 73 1020.2
20260507130919 10 319 4.8 9.7 0.00 0.00 0.00 73 1020.2
20260507130418 10 359 4.8 9.7 0.00 0.00 0.00 72 1020.2
20260507130154 10 313 4.8 8.0 0.00 0.00 0.00 73 1020.2
20260507125418 10 347 3.2 8.0 0.00 0.00 0.00 73 1020.2
20260507124917 10 327 3.2 9.7 0.00 0.00 0.00 73 1020.2
20260507124415 10 285 4.8 9.7 0.00 0.00 0.00 74 1020.2
20260507123908 10 317 4.8 9.7 0.00 0.00 0.00 73 1020.2
20260507123408 10 327 4.8 6.4 0.00 0.00 0.00 74 1020.2
20260507123144 10 289 3.2 6.4 0.00 0.00 0.00 75 1020.2
20260507122642 10 337 3.2 6.4 0.00 0.00 0.00 74 1020.2
20260507122137 10 303 3.2 4.8 0.00 0.00 0.00 73 1020.2
20260507121401 10 332 1.6 4.8 0.00 0.00 0.00 74 1020.2
20260507120902 10 323 3.2 4.8 0.00 0.00 0.00 74 1020.2
20260507120401 10 344 3.2 6.4 0.00 0.00 0.00 73 1020.3
20260507120156 10 322 4.8 8.0 0.00 0.00 0.00 73 1020.3
20260507115648 10 335 6.4 8.0 0.00 0.00 0.00 73 1020.3
20260507114850 10 337 6.4 9.7 0.00 0.00 0.00 73 1020.4
20260507114350 10 304 4.8 9.7 0.00 0.00 0.00 73 1020.4
20260507113849 10 354 3.2 8.0 0.00 0.00 0.00 73 1020.4
20260507113349 10 341 3.2 8.0 0.00 0.00 0.00 73 1020.5
20260507112847 10 337 3.2 4.8 0.00 0.00 0.00 74 1020.5
20260507112408 10 346 3.2 4.8 0.00 0.00 0.00 73 1020.5
20260507111345 10 302 1.6 4.8 0.00 0.00 0.00 74 1020.4
20260507110835 10 306 1.6 3.2 0.00 0.00 0.00 74 1020.4
20260507110332 10 4 1.6 3.2 0.00 0.00 0.00 74 1020.5
20260507110104 11 344 1.6 4.8 0.00 0.00 0.00 75 1020.5
20260507105331 11 281 3.2 4.8 0.00 0.00 0.00 74 1020.5
20260507104823 11 240 3.2 6.4 0.00 0.00 0.00 74 1020.5
20260507104327 11 256 3.2 6.4 0.00 0.00 0.00 74 1020.5
20260507103823 11 266 3.2 6.4 0.00 0.00 0.00 74 1020.5
20260507103322 11 254 1.6 6.4 0.00 0.00 0.00 75 1020.5
20260507102819 11 280 1.6 4.8 0.00 0.00 0.00 75 1020.5
20260507102307 11 236 3.2 4.8 0.00 0.00 0.00 75 1020.5
20260507101809 11 279 3.2 4.8 0.00 0.00 0.00 75 1020.6
20260507101308 11 280 3.2 4.8 0.00 0.00 0.00 74 1020.6
20260507100809 11 259 1.6 4.8 0.00 0.00 0.00 75 1020.6
20260507100303 11 284 3.2 6.4 0.00 0.00 0.00 74 1020.4
20260507095802 11 218 3.2 8.0 0.00 0.00 0.00 74 1020.4
20260507095306 11 207 3.2 8.0 0.00 0.00 0.00 74 1020.4
20260507094802 11 215 3.2 6.4 0.00 0.00 0.00 75 1020.6
20260507094259 11 218 3.2 6.4 0.00 0.00 0.00 75 1020.6
20260507093751 11 237 3.2 6.4 0.00 0.00 0.00 74 1020.6
20260507093246 11 217 3.2 8.0 0.00 0.00 0.00 75 1020.7
20260507092731 11 233 4.8 8.0 0.00 0.00 0.00 75 1020.7
20260507092232 11 202 4.8 8.0 0.00 0.00 0.00 75 1020.7
20260507091724 11 241 3.2 9.7 0.00 0.00 0.00 75 1020.7
20260507091222 11 226 3.2 9.7 0.00 0.00 0.00 75 1020.7
20260507090715 11 281 3.2 6.4 0.00 0.00 0.00 75 1020.7
20260507090208 11 263 3.2 8.0 0.00 0.00 0.00 74 1020.7
20260507085703 11 239 4.8 9.7 0.00 0.00 0.00 74 1020.7
20260507085204 11 249 3.2 9.7 0.00 0.00 0.00 74 1020.7
20260507084707 11 216 3.2 6.4 0.00 0.00 0.00 74 1020.7
20260507084203 11 250 4.8 11.3 0.00 0.00 0.00 74 1020.7
20260507083703 11 241 6.4 11.3 0.00 0.00 0.00 73 1020.7
20260507083201 11 253 6.4 9.7 0.00 0.00 0.00 74 1020.7
20260507082702 11 258 4.8 9.7 0.00 0.00 0.00 73 1020.7
20260507081950 11 221 4.8 9.7 0.00 0.00 0.00 72 1020.7
20260507081201 11 246 4.8 9.7 0.00 0.00 0.00 72 1020.7
20260507080706 11 256 4.8 8.0 0.00 0.00 0.00 72 1020.7
20260507080204 11 244 4.8 9.7 0.00 0.00 0.00 72 1020.7
20260507075702 11 217 4.8 9.7 0.00 0.00 0.00 72 1020.7
20260507075202 11 258 4.8 11.3 0.00 0.00 0.00 71 1020.7
20260507074701 11 273 6.4 11.3 0.00 0.00 0.00 71 1020.7
20260507074203 11 267 6.4 16.1 0.00 0.00 0.00 71 1020.7
20260507073700 11 244 6.4 16.1 0.00 0.00 0.00 70 1020.7
20260507073159 11 217 4.8 11.3 0.00 0.00 0.00 70 1020.6
20260507072653 11 264 4.8 11.3 0.00 0.00 0.00 70 1020.6
20260507072147 11 265 3.2 9.7 0.00 0.00 0.00 71 1020.6
20260507071924 11 275 4.8 9.7 0.00 0.00 0.00 70 1020.7
20260507071141 11 294 4.8 9.7 0.00 0.00 0.00 70 1020.7
20260507070640 11 229 4.8 8.0 0.00 0.00 0.00 70 1020.7
20260507070140 11 229 4.8 9.7 0.00 0.00 0.00 71 1020.6
20260507065637 11 242 4.8 14.5 0.00 0.00 0.00 70 1020.6
20260507065137 11 242 4.8 14.5 0.00 0.00 0.00 70 1020.6
20260507064637 11 258 4.8 11.3 0.00 0.00 0.00 70 1020.7
20260507064135 11 237 4.8 11.3 0.00 0.00 0.00 70 1020.7
20260507063632 12 194 6.4 14.5 0.00 0.00 0.00 70 1020.7
20260507063133 11 188 8.0 14.5 0.00 0.00 0.00 70 1020.7
20260507062633 11 181 8.0 16.1 0.00 0.00 0.00 71 1020.7
20260507062422 11 186 6.4 16.1 0.00 0.00 0.00 70 1020.7
20260507061633 12 193 4.8 14.5 0.00 0.00 0.00 71 1020.7
20260507061137 12 204 4.8 6.4 0.00 0.00 0.00 70 1020.7
20260507060631 12 223 3.2 8.0 0.00 0.00 0.00 70 1020.7
20260507060131 12 242 3.2 8.0 0.00 0.00 0.00 70 1020.7
20260507055637 12 203 3.2 8.0 0.00 0.00 0.00 71 1020.7
20260507055135 12 257 4.8 14.5 0.00 0.00 0.00 71 1020.7
20260507054658 12 237 6.4 14.5 0.00 0.00 0.00 70 1020.7
20260507053631 12 201 4.8 11.3 0.00 0.00 0.00 70 1020.7
20260507053121 12 225 4.8 9.7 0.00 0.00 0.00 70 1020.7
20260507052604 12 275 3.2 8.0 0.00 0.00 0.00 70 1020.7
20260507052056 12 252 3.2 8.0 0.00 0.00 0.00 70 1020.7
20260507051838 12 263 3.2 6.4 0.00 0.00 0.00 70 1020.7
20260507051050 12 246 3.2 6.4 0.00 0.00 0.00 70 1020.7
20260507050542 12 281 4.8 8.0 0.00 0.00 0.00 70 1020.7
20260507050036 12 263 6.4 12.9 0.00 0.00 0.00 69 1020.7
20260507045533 12 271 9.7 20.9 0.00 0.00 0.00 69 1020.7
20260507045035 12 284 9.7 20.9 0.00 0.00 0.00 69 1020.7
20260507044534 12 285 6.4 16.1 0.00 0.00 0.00 68 1020.7
20260507044032 12 228 6.4 17.7 0.00 0.00 0.00 68 1020.7
20260507043531 12 309 8.0 17.7 0.00 0.00 0.00 69 1020.7
20260507043031 12 302 9.7 22.5 0.00 0.00 0.00 69 1020.7
20260507042532 12 265 9.7 22.5 0.00 0.00 0.00 69 1020.7
20260507042031 12 266 9.7 19.3 0.00 0.00 0.00 69 1020.7
20260507041540 12 279 11.3 22.5 0.00 0.00 0.00 69 1020.7
20260507041034 12 309 8.0 22.5 0.00 0.00 0.00 70 1020.7
20260507040603 12 290 8.0 20.9 0.00 0.00 0.00 71 1020.7
20260507035817 12 261 12.9 24.1 0.00 0.00 0.00 72 1020.7
20260507035315 12 262 11.3 24.1 0.00 0.00 0.00 72 1020.6
20260507034531 12 286 8.0 16.1 0.00 0.00 0.00 72 1020.6
20260507034033 12 262 8.0 16.1 0.00 0.00 0.00 72 1020.6
20260507033812 12 269 11.3 22.5 0.00 0.00 0.00 72 1020.4
20260507033034 12 334 12.9 22.5 0.00 0.00 0.00 72 1020.4
20260507032806 12 279 14.5 25.7 0.00 0.00 0.00 72 1020.4
20260507032025 12 343 12.9 25.7 0.00 0.00 0.00 72 1020.4
20260507031523 12 253 11.3 20.9 0.00 0.00 0.00 70 1020.4
20260507031024 12 278 11.3 22.5 0.00 0.00 0.00 71 1020.4
20260507030523 13 283 9.7 22.5 0.00 0.00 0.00 71 1020.2
20260507030021 13 299 8.0 17.7 0.00 0.00 0.00 70 1020.2
20260507025809 13 290 9.7 17.7 0.00 0.00 0.00 70 1020.2
20260507025018 13 256 8.0 17.7 0.00 0.00 0.00 70 1020.2
20260507024515 13 287 8.0 17.7 0.00 0.00 0.00 70 1020.2
20260507024014 13 310 8.0 17.7 0.00 0.00 0.00 70 1020.2
20260507023516 13 294 9.7 17.7 0.00 0.00 0.00 69 1020.0
20260507023015 13 295 9.7 17.7 0.00 0.00 0.00 69 1020.0
20260507022513 13 305 9.7 20.9 0.00 0.00 0.00 70 1020.0
20260507022012 13 313 11.3 22.5 0.00 0.00 0.00 71 1020.1
20260507021514 13 307 14.5 24.1 0.00 0.00 0.00 70 1020.1
20260507021014 13 308 14.5 24.1 0.00 0.00 0.00 71 1020.1
20260507020511 13 331 12.9 22.5 0.00 0.00 0.00 70 1020.1
20260507020010 13 286 12.9 22.5 0.00 0.00 0.00 71 1020.1
20260507015532 13 243 11.3 19.3 0.00 0.00 0.00 71 1020.1
20260507014501 13 291 16.1 32.2 0.00 0.00 0.00 71 1020.1